Date,TemperatureHighF,TemperatureAvgF,TemperatureLowF,DewpointHighF,DewpointAvgF,DewpointLowF,HumidityHigh,HumidityAvg,HumidityLow,PressureMaxIn,PressureMinIn,WindSpeedMaxMPH,WindSpeedAvgMPH,GustSpeedMaxMPH,PrecipitationSumIn
2013-1-1,50,48,45,49,42,30,99,84,51,30.16,29.94,2,0,6,0.53
2013-1-2,53,49,46,49,46,41,99,87,67,30.13,29.90,3,1,9,0.31
2013-1-3,46,43,36,44,40,26,96,89,59,30.29,30.09,7,2,14,0.01
2013-1-4,52,39,26,31,26,20,92,62,40,30.37,30.25,6,1,14,0.00
2013-1-5,48,38,27,37,26,23,87,64,41,30.41,30.26,3,1,7,0.01
2013-1-6,56,45,40,44,39,31,92,80,64,30.25,30.05,4,1,10,0.03
2013-1-7,53,41,31,32,30,28,89,67,39,30.42,30.22,5,1,10,0.00
2013-1-8,52,42,29,42,35,27,93,76,61,30.47,30.37,5,1,9,0.00
2013-1-9,64,55,48,56,49,40,92,79,69,30.45,30.37,3,0,6,0.00
2013-1-10,67,57,47,55,51,46,98,82,63,30.47,30.32,6,2,13,0.03
2013-1-11,57,52,50,55,51,49,99,97,92,30.33,30.15,7,2,13,0.36
2013-1-12,74,60,52,66,58,52,100,92,65,30.17,30.08,5,1,11,0.09
2013-1-13,69,60,55,64,59,54,99,94,80,30.12,30.04,4,0,10,0.01
2013-1-14,66,62,57,65,62,56,99,97,94,30.10,30.03,5,1,10,0.43
2013-1-15,62,53,45,61,52,44,98,97,96,30.11,30.03,8,2,16,0.30
2013-1-16,52,48,45,51,47,44,98,98,97,30.04,29.96,7,2,11,0.41
2013-1-17,53,48,39,53,48,37,99,97,93,30.19,29.72,18,5,31,1.93
2013-1-18,53,41,34,37,28,22,96,64,30,30.51,30.19,7,2,16,0.36
2013-1-19,54,39,28,33,29,25,94,70,33,30.50,30.21,5,1,10,0.00
2013-1-20,66,47,34,39,33,29,84,63,34,30.21,30.03,4,1,10,0.00
2013-1-21,63,45,31,37,29,18,92,59,29,30.09,29.96,4,1,16,0.00
2013-1-22,48,37,29,22,17,12,65,44,25,30.27,30.03,6,2,10,0.00
2013-1-23,53,37,24,30,22,13,80,58,35,30.36,30.11,5,1,12,0.00
2013-1-24,50,43,30,37,22,5,79,48,20,30.48,30.02,11,4,18,0.00
2013-1-25,30,28,26,27,17,8,93,68,41,30.51,30.14,4,1,9,0.00
2013-1-26,53,37,28,39,32,27,98,83,46,30.35,30.13,2,0,5,0.08
2013-1-27,45,39,32,33,31,28,89,74,60,30.56,30.35,7,3,14,0.01
2013-1-28,53,46,42,46,38,31,95,74,62,30.47,30.27,4,1,9,0.00
2013-1-29,69,56,41,60,52,40,98,89,71,30.27,30.00,6,1,13,0.00
2013-1-30,69,63,47,64,59,45,97,89,80,30.01,29.45,11,5,25,1.84
2013-1-31,53,45,39,45,27,22,94,52,32,30.08,29.58,5,2,15,1.79
2013-2-1,44,38,27,29,18,9,76,46,26,30.37,29.98,8,2,15,0.00
2013-2-2,46,33,23,37,22,10,96,68,24,30.39,30.09,6,1,11,0.07
2013-2-3,57,42,32,39,31,24,96,70,30,30.09,29.90,5,1,13,0.07
2013-2-4,50,38,29,31,26,23,84,64,38,30.15,30.03,4,1,8,0.01
2013-2-5,64,47,33,45,37,29,88,69,45,30.03,29.92,5,1,13,0.00
2013-2-12,56,50,46,45,42,34,93,76,44,30.01,29.90,3,0,6,0.17
2013-2-13,46,22,43,44,-29,-100,96,46,90,29.91,29.68,4,1,8,0.23
2013-2-14,-200,0,200,-100,-100,-100,0,0,100,30.07,29.89,0,0,0,0.01
2013-2-15,62,20,44,38,-50,-100,69,18,33,30.07,29.91,7,1,13,0.00
2013-2-16,44,38,28,34,27,14,91,65,48,30.06,29.85,6,2,12,0.03
2013-2-17,48,33,20,20,13,2,79,49,16,30.29,30.06,4,1,13,0.02
2013-2-18,56,40,24,27,22,16,84,53,28,30.39,30.22,6,2,14,0.00
2013-2-19,53,43,37,46,34,16,95,72,39,30.23,29.91,4,1,15,0.24
2013-2-20,57,41,25,27,19,-100,83,46,20,30.14,30.06,4,1,8,0.01
2013-2-21,59,45,32,39,20,13,79,40,20,30.23,30.08,7,2,13,0.05
2013-2-22,45,40,39,39,38,36,97,92,76,30.25,30.11,10,4,17,0.42
2013-2-23,46,42,39,44,41,38,97,95,92,30.14,29.87,4,2,12,0.37
2013-2-24,65,51,41,47,40,30,98,70,35,30.00,29.87,7,1,12,0.01
2013-2-25,48,44,37,33,29,26,84,55,49,30.14,29.98,10,5,19,0.01
2013-2-26,43,38,34,42,36,32,97,95,86,30.04,29.62,17,5,33,0.99
2013-2-27,58,47,36,40,37,34,96,70,50,29.83,29.68,7,2,17,0.01
2013-2-28,56,44,34,37,29,25,75,59,38,29.92,29.74,5,1,13,0.00
2013-3-1,50,40,29,32,29,25,88,65,45,29.96,29.87,6,1,10,0.00
2013-3-2,46,40,33,36,31,21,89,70,50,29.96,29.85,7,2,13,0.00
2013-3-3,48,36,27,23,20,17,75,54,33,30.04,29.92,8,2,15,0.00
2013-3-4,56,40,25,29,20,15,74,48,22,30.19,30.04,5,1,10,0.00
2013-3-5,53,45,38,46,39,28,97,80,56,30.09,29.66,7,1,13,0.62
2013-3-6,50,39,32,38,27,21,85,62,40,30.13,29.70,11,3,20,0.62
2013-3-7,58,43,29,32,29,25,88,60,36,30.26,30.12,7,2,12,0.00
2013-3-8,62,46,30,29,21,6,83,45,11,30.32,30.19,13,2,20,0.00
2013-3-9,62,48,32,35,28,24,78,49,27,30.36,30.23,5,1,11,0.00
2013-3-10,66,53,40,40,36,33,81,56,30,30.29,30.15,6,1,12,0.00
2013-3-11,67,56,49,55,48,38,98,75,54,30.16,29.82,8,2,19,0.66
2013-3-12,70,58,47,56,47,32,98,73,38,30.00,29.73,7,2,12,0.85
2013-3-13,60,46,34,35,28,20,90,54,24,30.18,30.00,6,2,12,0.01
2013-3-14,53,42,31,26,20,15,57,43,24,30.32,30.18,7,3,15,0.00
2013-3-15,71,51,31,43,33,20,78,53,32,30.21,29.92,7,2,17,0.00
2013-3-16,78,65,53,51,45,42,68,50,34,29.94,29.75,8,2,27,0.00
2013-3-17,76,63,50,53,47,42,78,58,40,30.01,29.85,10,2,21,0.00
2013-3-18,50,43,40,42,40,38,97,91,74,30.08,29.87,9,4,21,0.40
2013-3-19,70,53,41,49,35,20,99,60,19,30.05,29.87,4,1,18,0.40
2013-3-20,59,49,43,26,17,10,39,27,20,30.11,29.81,8,2,20,0.01
2013-3-21,52,40,30,30,19,6,79,46,19,29.96,29.81,7,2,14,0.00
2013-3-22,49,39,28,29,21,15,70,49,33,30.10,29.96,4,1,13,0.00
2013-3-23,51,45,41,47,40,28,95,83,53,30.05,29.88,3,1,7,0.09
2013-3-24,46,44,42,44,42,40,97,94,89,29.92,29.57,10,4,23,1.00
2013-3-25,50,41,33,41,30,22,98,67,41,29.96,29.57,5,2,14,0.06
2013-3-26,50,38,28,28,24,22,86,60,35,30.22,29.95,8,2,17,0.00
2013-3-27,55,42,28,27,24,21,85,53,27,30.30,30.17,7,2,14,0.00
2013-3-28,60,44,29,32,24,19,86,51,21,30.34,30.18,7,1,11,0.00
2013-3-29,63,46,31,43,30,23,81,56,25,30.36,30.22,6,1,13,0.00
2013-3-30,67,55,45,46,42,40,90,65,38,30.22,30.03,5,1,10,0.00
2013-3-31,70,59,51,59,53,-100,98,85,57,30.06,29.83,7,1,14,0.57
2013-4-1,76,62,52,56,45,36,98,60,28,29.96,29.83,5,1,12,0.03
2013-4-2,70,57,43,38,33,23,76,43,19,30.13,29.96,4,1,13,0.01
2013-4-3,60,54,48,33,25,18,43,33,25,30.25,30.09,7,3,17,0.00
2013-4-4,54,44,37,37,34,26,94,71,42,30.23,29.98,15,6,25,0.60
2013-4-5,67,50,35,46,38,27,97,69,23,30.06,29.92,8,2,14,0.08
2013-4-6,70,57,41,42,37,32,85,52,24,30.21,30.06,7,2,15,0.00
2013-4-7,72,59,43,51,46,37,89,63,40,30.23,30.09,8,2,17,0.00
2013-4-8,78,64,52,59,53,47,93,70,44,30.15,30.04,6,2,12,0.00
2013-4-9,83,68,53,61,55,50,93,68,42,30.18,30.08,6,1,12,0.00
2013-4-10,84,70,56,63,58,54,94,69,44,30.09,29.93,6,2,12,0.00
2013-4-11,80,69,60,67,61,56,95,78,54,29.95,29.69,6,2,14,0.22
2013-4-12,79,68,58,67,55,38,98,67,30,29.81,29.63,7,2,19,1.53
2013-4-13,77,61,44,47,42,37,92,53,24,30.00,29.81,4,1,10,0.13
2013-4-14,69,63,55,54,44,36,87,53,37,30.06,29.95,5,2,10,0.03
2013-4-15,70,62,55,60,57,53,97,86,64,30.18,29.94,6,2,11,0.26
2013-4-16,79,68,60,63,59,56,88,75,52,30.27,30.15,4,1,9,0.03
2013-4-17,82,67,60,67,62,58,98,85,54,30.21,30.09,12,1,22,0.38
2013-4-18,79,68,59,65,62,58,99,81,53,30.13,29.94,5,1,11,0.15
2013-4-19,70,64,51,67,61,49,97,92,84,29.94,29.75,8,2,19,0.90
2013-4-20,64,53,40,50,35,29,96,54,32,30.26,29.91,6,2,14,0.02
2013-4-21,64,56,44,42,36,31,83,49,34,30.41,30.26,11,5,19,0.00
2013-4-22,63,54,46,43,39,35,78,58,39,30.39,30.20,9,4,21,0.00
2013-4-23,72,59,48,50,42,33,82,55,40,30.27,30.08,7,3,15,0.00
2013-4-24,75,61,49,61,55,47,97,81,54,30.13,30.01,7,2,15,0.00
2013-4-25,74,62,52,59,43,29,97,55,26,30.26,30.05,6,2,12,0.00
2013-4-26,73,61,48,48,37,31,66,42,28,30.41,30.26,7,2,15,0.00
2013-4-27,63,57,54,58,52,41,96,86,45,30.34,30.23,4,1,8,0.31
2013-4-28,55,53,51,54,51,-100,98,96,93,30.24,30.04,5,1,13,1.67
2013-4-29,75,61,54,62,57,53,99,87,60,30.06,29.92,4,1,12,0.30
2013-4-30,76,64,53,63,58,52,99,84,55,30.14,29.96,6,2,14,0.03
2013-5-1,68,62,57,59,56,54,90,80,67,30.24,30.14,9,5,21,0.00
2013-5-2,61,58,56,58,56,55,97,93,86,30.26,30.19,9,5,16,0.05
2013-5-3,64,59,56,58,55,54,97,89,75,30.21,30.06,11,5,19,0.06
2013-5-4,59,54,51,55,50,43,96,84,66,30.06,29.93,10,6,23,0.80
2013-5-5,55,52,49,53,51,48,98,96,96,29.96,29.81,13,6,24,2.86
2013-5-6,66,57,50,56,51,47,99,82,57,29.91,29.79,5,1,11,0.38
2013-5-7,73,57,44,56,50,43,97,80,46,29.95,29.86,5,1,11,0.38
2013-5-8,79,63,50,61,55,49,99,79,51,30.02,29.91,4,1,12,0.37
2013-5-9,82,67,52,62,56,51,97,72,38,30.07,29.99,4,1,14,0.00
2013-5-10,83,68,57,69,59,-100,97,78,51,30.06,29.93,4,1,12,0.02
2013-5-11,77,69,60,66,62,58,96,80,63,29.95,29.80,6,1,16,0.09
2013-5-12,77,64,53,61,45,-100,97,58,17,30.03,29.84,5,2,15,0.09
2013-5-13,71,57,43,41,36,29,84,48,22,30.18,30.03,7,1,12,0.00
2013-5-14,75,60,43,53,44,37,88,58,34,30.25,30.08,5,1,13,0.00
2013-5-15,89,72,57,64,58,52,90,64,40,30.09,29.92,5,1,11,0.00
2013-5-16,81,66,58,64,38,-100,89,69,47,30.01,29.94,3,1,8,0.00
2013-5-17,86,72,60,66,57,-100,94,71,41,30.07,29.99,5,1,11,0.00
2013-5-18,76,69,64,68,65,61,98,88,68,30.10,30.01,4,1,9,0.92
2013-5-19,76,70,65,69,66,64,98,90,74,30.09,29.99,3,0,8,0.12
2013-5-20,84,72,64,70,66,63,99,85,59,30.09,29.99,4,0,10,0.01
2013-5-21,87,74,64,72,67,63,99,80,50,30.02,29.90,5,1,9,0.00
2013-5-22,86,47,64,71,8,-100,97,54,60,29.98,29.83,7,2,13,0.61
2013-5-23,84,28,70,68,-40,-100,68,22,52,29.94,29.78,4,1,10,0.91
2013-5-24,76,67,57,59,49,38,95,58,29,30.20,29.87,11,3,21,0.01
2013-5-25,77,65,50,54,45,38,79,51,30,30.29,30.16,7,1,12,0.00
2013-5-26,75,64,56,55,48,42,85,58,37,30.27,30.15,5,1,10,0.00
2013-5-27,82,69,54,62,57,52,93,67,42,30.25,30.11,4,1,10,0.00
2013-5-28,83,73,63,64,62,60,91,71,46,30.20,30.11,4,1,12,0.00
2013-5-29,85,73,61,65,62,59,95,70,46,30.22,30.13,5,1,9,0.00
2013-5-30,84,73,63,66,63,60,95,73,47,30.25,30.13,3,1,9,0.00
2013-5-31,85,75,66,69,65,63,94,73,50,30.20,30.07,4,1,11,0.00
2013-6-1,87,76,67,68,66,64,92,73,50,30.11,29.98,5,1,12,0.00
2013-6-2,75,71,67,73,66,-100,98,89,75,30.02,29.88,6,1,12,1.59
2013-6-3,84,72,65,72,68,64,99,87,62,29.93,29.83,3,0,7,0.46
2013-6-4,84,74,64,70,66,63,96,77,54,30.03,29.91,8,3,16,0.01
2013-6-5,82,73,67,71,68,65,98,85,69,30.05,29.93,8,3,18,0.46
2013-6-6,75,69,65,72,68,64,98,96,86,29.96,29.78,2,0,8,0.81
2013-6-7,83,71,67,74,69,66,99,93,69,29.81,29.66,5,1,10,0.56
2013-6-8,83,74,66,70,68,66,99,84,63,30.06,29.80,4,1,9,0.07
2013-6-9,85,72,67,75,69,66,98,90,64,30.11,30.02,4,1,10,0.39
2013-6-10,78,72,68,74,69,67,98,92,76,30.04,29.90,4,2,13,1.04
2013-6-11,91,78,68,73,69,63,99,79,39,29.98,29.90,3,0,8,0.26
2013-6-12,91,79,65,77,71,64,96,78,56,30.00,29.89,3,0,10,0.10
2013-6-13,93,80,70,75,72,68,96,78,51,29.90,29.68,4,1,13,0.01
2013-6-14,85,75,56,68,59,52,95,60,37,30.01,29.61,9,3,21,0.01
2013-6-15,85,73,60,65,60,56,91,66,46,30.12,30.01,4,1,10,0.00
2013-6-16,86,75,64,71,65,61,94,74,47,30.14,30.00,4,1,11,0.00
2013-6-17,85,75,69,75,70,67,98,86,69,30.03,29.91,7,1,15,0.80
2013-6-18,83,73,69,76,71,67,98,93,72,29.96,29.77,4,1,12,1.80
2013-6-19,83,74,67,68,66,65,97,79,56,30.08,29.87,6,2,12,0.52
2013-6-20,83,73,67,69,66,64,93,80,54,30.19,30.07,6,3,14,0.00
2013-6-29,68,67,66,68,67,66,100,100,100,29.54,29.52,20,17,35,0.00
2013-6-30,67,67,67,67,67,67,100,100,100,29.78,29.77,15,15,25,0.00
2013-7-1,81,74,66,72,70,65,98,86,73,30.04,29.83,20,2,32,0.37
2013-7-2,81,74,68,74,70,68,100,91,77,30.11,29.93,16,3,25,0.43
2013-7-3,82,73,67,73,70,66,98,92,75,30.18,30.08,7,1,15,0.77
2013-7-4,79,70,66,76,69,65,99,96,89,30.19,30.11,5,1,9,3.15
2013-7-5,85,73,68,73,70,68,99,91,65,30.22,30.00,16,1,26,0.82
2013-7-6,85,76,70,75,72,69,98,89,64,30.19,29.89,15,2,21,0.39
2013-7-7,84,76,71,75,72,70,98,88,71,30.14,30.05,4,1,11,0.15
2013-7-8,87,75,71,76,71,-100,99,90,63,30.17,30.07,4,1,10,0.08
2013-7-9,89,78,70,78,72,68,98,84,63,30.16,30.02,3,1,9,0.08
2013-7-10,86,74,70,76,69,-100,98,87,69,30.11,29.93,3,1,11,0.07
2013-7-11,81,76,72,76,73,70,97,93,81,29.96,29.85,1,0,4,0.06
2013-7-12,86,74,66,75,70,65,98,90,64,29.96,29.84,6,1,12,1.48
2013-7-13,78,72,65,72,69,63,97,91,80,30.09,29.96,7,4,15,0.30
2013-7-14,78,74,71,73,71,69,97,93,84,30.24,30.07,7,2,16,0.37
2013-7-15,85,76,70,73,71,69,97,86,65,30.30,30.22,7,2,14,0.01
2013-7-16,91,79,70,75,72,69,99,80,51,30.29,30.19,3,0,8,0.01
2013-7-17,92,78,69,77,72,67,98,83,53,30.23,30.09,10,1,28,1.15
2013-7-18,90,78,68,76,71,68,99,83,53,30.18,30.04,3,1,6,0.05
2013-7-19,90,79,71,77,73,70,99,83,58,30.10,29.96,4,1,11,0.00
2013-7-20,87,77,72,78,72,-100,97,88,70,30.01,29.62,22,3,36,0.16
2013-7-21,86,74,70,76,72,69,99,94,68,29.99,29.72,8,1,13,1.93
2013-7-22,87,77,65,76,72,65,99,87,64,29.99,29.83,6,1,13,1.79
2013-7-23,89,78,69,75,71,68,98,82,53,29.88,29.76,3,1,11,0.01
2013-7-24,90,78,70,75,71,68,98,80,52,29.80,29.73,6,1,11,0.01
2013-7-25,86,75,67,71,68,64,97,82,59,29.99,29.80,7,2,15,0.43
2013-7-26,83,74,67,73,70,66,98,87,68,30.07,29.97,6,1,12,0.43
2013-7-27,83,76,70,75,72,70,99,88,73,29.99,29.87,10,1,16,0.38
2013-7-28,87,75,67,76,70,67,99,85,55,29.99,29.88,11,1,15,0.11
2013-7-29,86,74,66,71,68,65,98,81,51,30.13,29.98,4,1,9,0.00
2013-7-30,84,76,67,72,68,61,91,76,60,30.19,30.10,7,2,14,0.00
2013-7-31,79,74,72,74,71,68,98,91,82,30.14,29.95,4,1,10,0.24
2013-8-1,87,75,71,74,72,69,98,90,65,29.98,29.87,2,0,12,0.35
2013-8-2,87,75,67,73,70,66,99,86,58,30.01,29.73,14,1,19,0.32
2013-8-3,88,79,71,74,71,68,98,81,53,30.00,29.93,3,0,9,0.00
2013-8-4,89,79,70,73,69,62,96,75,55,29.99,29.91,9,2,16,0.00
2013-8-5,85,74,68,72,66,59,89,76,61,30.04,29.84,11,2,19,0.01
2013-8-6,84,75,70,74,71,68,98,87,68,30.03,29.93,5,2,12,1.60
2013-8-7,79,74,71,76,72,70,99,96,85,30.05,29.98,4,0,9,0.56
2013-8-8,83,76,72,76,73,71,99,90,73,30.06,29.99,3,0,8,0.26
2013-8-9,90,77,71,79,74,71,99,91,63,30.06,29.93,14,1,25,0.34
2013-8-10,91,78,72,79,74,71,100,87,63,30.09,30.03,4,0,8,0.33
2013-8-11,91,77,69,77,73,69,99,88,59,30.11,30.03,5,1,11,0.15
2013-8-12,90,74,68,78,72,65,99,95,67,30.07,29.93,10,0,15,0.84
2013-8-13,89,77,71,78,72,-100,99,86,66,29.96,29.79,3,1,9,0.26
2013-8-14,80,72,70,71,63,-100,96,80,64,30.04,29.84,5,2,10,0.00
2013-8-15,72,64,64,64,48,-100,89,73,62,30.12,30.03,7,3,15,0.00
2013-8-16,73,64,62,64,58,-100,95,84,71,30.15,30.06,7,3,14,0.30
2013-8-17,69,65,63,64,62,60,98,90,79,30.17,30.11,7,3,16,0.13
2013-8-18,75,68,64,70,64,-100,99,93,82,30.21,30.12,2,1,7,0.33
2013-8-19,77,67,67,70,58,-100,99,93,78,30.18,30.07,5,1,12,0.90
2013-8-20,80,71,67,72,67,-100,99,91,73,30.18,30.09,3,1,6,0.02
2013-8-21,79,73,70,75,71,69,99,95,80,30.22,30.11,3,0,6,1.42
2013-8-22,88,76,69,75,71,69,100,88,60,30.15,30.02,2,0,11,0.32
2013-8-23,89,76,65,74,70,62,100,85,52,30.05,29.92,6,1,19,0.03
2013-8-24,81,72,65,68,64,61,98,76,55,30.27,30.03,13,5,21,0.02
2013-8-25,80,70,65,64,59,-100,90,71,45,30.37,30.18,10,3,14,0.00
2013-8-26,83,70,59,67,63,58,98,79,51,30.31,30.12,4,1,10,0.00
2013-8-27,88,73,63,71,66,62,98,81,44,30.15,30.01,4,1,8,0.00
2013-8-28,90,84,74,74,72,69,90,68,54,29.99,29.92,4,1,6,0.00
2013-8-29,93,80,69,77,72,68,98,80,54,29.94,29.86,5,1,13,0.00
2013-8-30,83,77,73,74,72,70,93,85,68,30.02,29.91,7,2,14,0.01
2013-8-31,89,77,70,76,72,69,98,86,60,29.95,29.86,6,1,16,0.01
2013-9-1,89,76,70,77,71,-100,99,88,58,29.91,29.79,3,1,12,0.01
2013-9-2,85,77,73,75,72,69,98,86,63,29.89,29.80,3,0,7,0.01
2013-9-3,88,76,67,72,69,65,98,81,52,29.95,29.81,6,1,11,0.10
2013-9-4,86,76,68,71,67,64,94,76,52,30.07,29.94,5,1,11,0.02
2013-9-5,88,75,66,72,68,61,98,80,46,30.11,30.03,2,0,6,0.00
2013-9-6,84,73,64,66,63,60,91,71,48,30.16,30.05,8,2,15,0.00
2013-9-7,85,73,65,68,65,61,94,77,54,30.12,29.98,4,1,8,0.00
2013-9-8,86,74,64,72,66,-100,98,80,51,29.98,29.92,5,1,9,0.00
2013-9-9,87,76,67,71,68,66,97,79,52,30.09,29.98,5,1,9,0.00
2013-9-10,87,81,71,73,70,69,93,71,55,30.22,30.13,3,1,8,0.00
2013-9-11,89,76,66,71,68,65,98,79,48,30.20,30.07,4,1,9,0.00
2013-9-12,92,76,69,73,70,67,97,82,50,30.08,29.85,3,0,8,0.02
2013-9-13,86,75,66,70,63,54,98,71,44,29.87,29.77,6,1,12,0.01
2013-9-14,78,68,59,61,56,52,80,67,49,30.09,29.80,9,3,16,0.00
2013-9-15,80,67,63,67,58,-100,92,77,61,30.19,30.09,5,1,9,0.00
2013-9-16,85,73,61,69,64,60,97,75,49,30.12,29.94,11,2,17,0.00
2013-9-17,73,69,65,63,59,56,78,72,61,30.27,30.12,10,5,18,0.00
2013-9-18,66,64,61,59,57,56,86,79,75,30.26,30.17,8,4,15,0.00
2013-9-19,82,70,60,68,63,58,97,80,57,30.17,30.07,3,0,8,0.00
2013-9-20,86,72,62,69,65,61,98,80,52,30.07,29.90,4,0,7,0.00
2013-9-21,73,68,63,71,67,62,98,95,89,29.92,29.64,6,1,14,1.36
2013-9-22,78,66,57,65,59,-100,99,81,56,29.89,29.72,5,1,10,0.97
2013-9-23,76,67,61,62,58,55,95,75,55,30.04,29.89,7,2,13,0.00
2013-9-24,75,66,57,64,61,56,98,85,64,30.06,29.92,3,0,8,0.00
2013-9-25,68,64,62,64,62,61,98,93,80,29.92,29.85,4,1,9,0.98
2013-9-26,75,66,60,63,60,56,98,82,57,30.02,29.87,7,3,13,0.05
2013-9-27,76,68,60,61,57,53,82,69,54,30.16,30.02,8,4,15,0.00
2013-9-28,72,64,58,58,56,55,90,75,59,30.24,30.13,7,3,13,0.00
2013-9-29,72,62,56,60,54,-100,95,78,58,30.17,30.03,5,2,9,0.00
2013-9-30,77,64,56,62,58,55,97,83,53,30.09,29.99,5,0,8,0.00
2013-10-1,66,64,59,62,60,58,96,88,83,30.11,30.07,0,0,1,0.02
2013-10-2,82,69,58,66,61,57,97,80,48,30.14,30.06,7,1,11,0.02
2013-10-3,83,70,59,67,62,58,98,79,47,30.12,30.05,3,0,8,0.00
2013-10-4,85,69,59,68,63,58,98,84,53,30.14,30.06,5,0,10,0.00
2013-10-5,85,71,60,69,64,59,98,80,50,30.12,30.01,3,0,7,0.00
2013-10-6,82,70,61,68,64,60,98,83,58,30.04,29.85,5,1,10,0.00
2013-10-7,78,68,60,70,64,52,99,86,65,29.97,29.79,6,1,11,1.44
2013-10-8,70,62,58,55,52,48,82,68,55,30.18,29.96,13,5,26,0.02
2013-10-9,72,62,54,54,48,44,86,62,39,30.22,30.10,9,4,21,0.00
2013-10-10,78,64,47,57,52,46,97,69,40,30.13,29.98,6,1,13,0.00
2013-10-11,81,67,55,60,56,49,93,69,34,30.01,29.91,5,1,10,0.00
2013-10-12,79,66,56,65,59,55,97,79,52,30.08,29.95,3,0,7,0.00
2013-10-13,75,67,64,65,61,-100,93,83,68,30.19,30.08,6,2,12,0.00
2013-10-14,70,66,62,65,62,60,95,88,75,30.21,30.12,8,3,16,0.00
2013-10-15,69,62,57,61,58,56,97,87,72,30.17,30.05,6,2,12,0.00
2013-10-16,73,63,53,61,57,52,98,82,61,30.07,29.96,3,0,6,0.00
2013-10-17,69,64,61,65,63,59,99,95,84,29.97,29.85,3,0,8,0.25
2013-10-18,71,62,52,65,58,52,99,88,64,30.01,29.88,4,1,12,0.01
2013-10-19,64,60,52,61,58,51,99,93,79,29.96,29.86,2,0,10,0.03
2013-10-20,66,53,43,51,45,-100,98,80,51,30.09,29.93,4,0,8,0.01
2013-10-21,68,57,46,56,51,44,96,82,62,30.15,30.01,3,1,8,0.00
2013-10-22,67,60,55,59,56,51,97,88,59,30.03,29.81,3,0,8,0.01
2013-10-23,68,54,40,54,42,31,98,71,31,30.05,29.75,4,1,12,0.01
2013-10-24,63,47,35,45,39,33,95,76,43,30.18,30.05,4,0,10,0.00
2013-10-25,54,48,40,42,31,27,91,55,38,30.39,30.18,8,3,16,0.00
2013-10-26,58,45,31,40,34,29,93,66,43,30.38,30.11,4,1,10,0.00
2013-10-27,69,53,41,54,44,-100,93,75,53,30.14,30.06,3,1,7,0.00
2013-10-28,68,58,52,59,53,-100,97,88,66,30.25,30.11,2,0,7,0.03
2013-10-29,71,59,49,58,53,48,98,84,55,30.32,30.23,5,0,10,0.02
2013-10-30,78,64,53,60,57,52,98,81,52,30.29,30.15,4,0,10,0.00
2013-10-31,72,63,55,63,59,54,98,87,68,30.17,29.90,3,0,10,0.00
2013-11-1,70,65,59,65,62,57,97,89,77,29.89,29.66,5,2,13,0.12
2013-11-2,71,57,45,58,47,38,98,74,35,30.00,29.73,4,0,10,0.01
2013-11-3,63,50,41,43,38,-100,94,69,36,30.35,30.00,7,1,15,0.00
2013-11-4,58,51,45,40,36,33,74,58,42,30.51,30.35,8,4,19,0.00
2013-11-5,59,49,41,48,40,32,88,70,55,30.55,30.41,10,4,18,0.00
2013-11-6,69,57,51,56,52,48,95,83,63,30.41,30.13,6,2,15,0.00
2013-11-7,71,56,47,61,48,34,98,77,46,30.14,29.97,8,2,17,0.02
2013-11-8,61,49,41,35,29,23,70,48,25,30.31,30.14,5,2,16,0.02
2013-11-9,60,48,35,39,31,-100,84,55,33,30.38,30.23,4,1,9,0.00
2013-11-10,72,55,41,42,37,33,89,57,27,30.25,30.14,5,1,8,0.00
2013-11-11,62,50,41,38,32,28,82,52,29,30.35,30.17,6,1,14,0.00
2013-11-12,67,45,30,42,32,16,89,63,29,30.46,30.07,10,2,21,0.00
2013-11-13,51,36,27,24,18,12,77,49,21,30.56,30.45,6,1,13,0.00
2013-11-14,58,40,26,27,23,18,85,56,21,30.50,30.35,4,1,9,0.00
2013-11-15,58,46,32,48,37,25,95,72,35,30.36,30.20,3,0,7,0.20
2013-11-16,63,54,49,56,50,-100,98,89,76,30.27,30.18,6,1,11,0.20
2013-11-17,65,60,56,61,57,53,98,91,83,30.21,29.92,5,1,10,0.71
2013-11-18,77,62,52,64,51,33,99,71,33,29.98,29.85,8,1,18,0.53
2013-11-19,58,50,44,35,29,26,58,44,29,30.24,29.96,7,2,14,0.01
2013-11-20,53,46,39,33,31,28,69,56,43,30.43,30.22,10,5,19,0.00
2013-11-21,51,48,45,48,41,33,96,77,60,30.46,30.37,7,4,18,0.09
2013-11-22,61,55,50,58,54,49,98,95,90,30.40,30.14,3,0,8,0.02
2013-11-23,61,54,43,57,45,-100,98,74,42,30.19,30.07,6,2,13,0.01
2013-11-24,42,36,30,27,15,10,59,42,29,30.53,30.19,11,5,21,0.01
2013-11-25,43,35,27,16,11,7,48,37,25,30.57,30.33,7,2,12,0.00
2013-11-26,46,39,32,45,36,15,98,92,39,30.33,29.65,13,3,26,2.81
2013-11-27,47,40,30,46,33,19,99,77,48,30.22,29.53,7,3,18,0.57
2013-11-28,47,33,22,27,22,18,90,66,42,30.50,30.22,4,1,10,0.01
2013-11-29,55,39,26,34,26,22,95,65,30,30.59,30.48,6,1,12,0.00
2013-11-30,48,39,33,28,24,-100,76,59,40,30.63,30.39,8,4,15,0.00
2013-12-1,56,44,34,41,33,25,91,68,46,30.38,30.02,4,1,8,0.00
2013-12-2,59,46,33,47,40,31,98,82,48,30.03,29.82,4,0,7,0.00
2013-12-3,58,53,49,53,51,46,97,93,81,29.95,29.86,3,0,7,0.16
2013-12-4,60,56,53,60,56,52,99,98,97,30.07,29.93,3,0,5,0.14
2013-12-5,67,64,60,67,63,60,100,99,98,30.09,29.98,6,1,16,0.21
2013-12-6,74,68,66,67,65,63,98,90,75,30.03,29.93,7,3,18,0.09
2013-12-7,67,57,50,65,51,-100,97,82,63,30.35,29.97,8,3,14,0.12
2013-12-8,49,40,36,45,39,35,97,94,75,30.37,30.27,7,4,17,0.25
2013-12-9,45,41,36,44,40,35,98,98,97,30.29,30.06,3,0,8,0.55
2013-12-10,58,47,37,55,40,24,100,79,47,30.32,29.92,10,2,19,0.21
2013-12-11,53,38,27,32,28,24,93,69,36,30.45,30.30,4,1,10,0.01
2013-12-12,52,38,27,29,22,16,92,60,25,30.42,30.31,4,1,8,0.01
2013-12-13,55,38,25,33,25,20,89,62,34,30.40,30.26,4,0,9,0.00
2013-12-14,44,42,40,43,36,-100,97,81,55,30.28,29.83,10,2,19,1.27
2013-12-15,52,44,31,45,38,28,98,82,57,30.13,29.77,6,1,15,0.01
2013-12-16,62,42,27,38,31,26,97,70,33,30.21,30.11,4,1,10,0.01
2013-12-17,64,47,33,39,34,25,92,65,36,30.17,29.98,6,1,15,0.01
2013-12-18,56,42,30,27,24,21,83,53,26,30.30,30.07,4,0,9,0.00
2013-12-19,64,43,29,31,26,20,88,58,20,30.35,30.24,4,1,9,0.00
2013-12-20,60,47,37,47,40,31,89,76,60,30.26,30.16,3,0,7,0.00
2013-12-21,61,55,49,60,52,-100,98,92,87,30.17,29.99,3,0,9,0.02
2013-12-22,69,64,59,66,62,58,98,95,89,30.03,29.96,8,2,21,1.43
2013-12-23,59,55,46,59,53,40,99,93,78,30.15,29.97,4,0,7,0.97
2013-12-24,47,40,31,41,28,16,92,63,46,30.43,30.15,10,2,19,0.01
2013-12-25,42,32,25,22,16,11,72,54,30,30.55,30.41,7,2,16,0.00
2013-12-26,57,39,27,30,25,21,86,61,32,30.42,30.26,3,0,6,0.00
2013-12-27,53,42,32,28,25,19,80,52,30,30.48,30.35,5,1,12,0.00
2013-12-28,49,38,28,40,30,-100,94,77,50,30.42,30.11,8,1,13,0.42
2013-12-29,61,47,40,53,44,38,98,92,74,30.12,29.81,10,2,21,1.19
2013-12-30,54,44,35,46,40,34,99,90,69,30.14,29.96,3,0,8,0.02
2013-12-31,52,41,34,40,32,27,96,73,40,30.37,30.13,4,0,9,0.00
2014-1-1,50,39,31,36,32,27,94,75,48,30.40,30.16,2,0,6,0.00
2014-1-2,46,43,34,45,40,21,97,89,68,30.16,29.68,4,0,11,0.21